Torna al catalogo

COSMOS 1932 FUEL CORE

AttivoLEO
NORAD 19162·DEBRIS·🇷🇺 Russia

Lanciato Mar 14, 1988 da Baikonur Cosmodrome

Loading…

Prossimi Passaggi (prossime 24 ore)

TLE

AggiornatoSource: Space-Track

Epoca: Sep 14, 2026, 13:38 UTC

1 19162U 88019D   26257.56851763 -.00000079  00000-0  85541-5 0  9993
2 19162  65.0463   6.2216 0025503 205.6618 166.8498 13.83935685936477

Traccia COSMOS 1932 FUEL CORE in tempo reale con AllMySat

Download on the App Store